SL-16 DEB, 20627

Orbit data source: Space-Track

SL-16 DEB, 20627 is space debris in LEO originally from a launch on Tue, 22 May 1990 UTC launched from the Tyuratam Missile And Space Complex (TTMTR). Debris objects in space refer to the collection of defunct objects orbiting the Earth. Examples of debris include non-operational satellites, rocket bodies, and fragments generated from explosions, collisions, or faulty payload assembly.

Loading next visibility...
Identifier
20627, 1990-046D
Orbit
LEO
Country
Flag of CISCIS
Related business
Manufacturer
Yuzhnoe
Mission
Spacecraft
Bus & Motor
SEP MOTOR COVER, Unknown motor
Mass
~0 kg wet, ~1 kg dry
Launch date (UTC)
1990-05-22 (36 years ago)
Launch vehicle
Unknown
Launch site
Tyuratam Missile And Space Complex (TTMTR)
Object type
Payload
Rocket body
Debris
Shape & HBR
Unknown shape, 0.2 m
Radar Cross Section
Small (<0.1 m²)

Expand to show TLE details & history
Last TLE update: 19 hours ago

TLE from 19 hours ago
0 SL-16 DEB
1 20627U 90046D   25348.81829369  .00000104  00000-0  13964-3 0  9995
2 20627  70.9734 229.6831 0212916 190.8557 250.9636 13.70938146778393
Epoch: 2025-12-14T19:38Z
TLE epoch observation values (Epoch: 2025-12-14T19:38:20.574Z)
Latitude
68.47327°
Longitude
-88.19786°
Altitude
1,061.687 km
Speed
7.301 km/s
True Right ascension
19h 20m 27s
True Declination
68° 21' 38"
Sunlit
Object was in daylight at epoch
Visualization orbit readout
Latitude
Unknown
Longitude
Unknown
Altitude
Unknown
Speed
Unknown
Apparent Right ascension
Unknown
Apparent Declination
Unknown
Sunlit
N/A
Visualization observer readout
Local Sidereal Time
13:24:46
Azimuth
Unknown
Elevation
Unknown
Doppler factor
Unknown
Orbital elements
Apogee altitude
1,151.143 km
Perigee altitude
837.206 km
Semi-major axis
7,372.311 km
Eccentricity
0.02129
Inclination
70.9734°
RAAN
229.6831°
Arg. of periapsis
190.8557°
True anomaly
248.67766°
Mean anomaly
250.9636°
Eccentric anomaly
249.81858°
Mean motion
3.42876 °/min
Orbital period
104.99 mins
BSTAR
0.00013964
Loading maneuver chart data...
Computing Atmospheric mass density...
Loading historical data...
Loading historical data...
Loading historical data...
Loading historical data...
Loading historical data...
Loading historical data...
Loading historical data...
Other satellites on launch #46 in the year 1990 (1990-05-22 UTC)

Documentation

Showing up to 5 results
|